Location: Wien
(48.2082°N, 16.3738°E)
Time: 11:40:49
(UTC+02:00)

Tiros 1 despin weight - Pass Details

Date: 21 September 2024
Orbit: 573 x 615 km, 48.2° (Epoch: 06 October)

Event Time Altitude Azimuth Distance (km) Brightness Sun altitude
Rises 01:39:00 0° 218° (SW) 2,836 - -39.9°
Reaches altitude 10° 01:41:28 10° 207° (SSW) 1,944 - -39.8°
Maximum altitude 01:45:21 30° 147° (SSE) 1,107 - -39.6°
Drops below altitude 10° 01:49:18 10° 87° (E) 1,972 - -39.4°
Exits shadow 01:51:36 - 77° (ENE) 2,799 ? -39.3°
Sets 01:51:49 0° 76° (ENE) 2,884 ? -39.2°
